• Processing (Info)

  • MPEC 2023-F58 : 2023 FH1

    The following Minor Planet Electronic Circular may be linked-to from your own Web pages, but must not otherwise be redistributed electronically.

    A form allowing access to any MPEC is at the bottom of this page.


    Read MPEC 2023-F57 Read MPEC 2023-F59


    M.P.E.C. 2023-F58                                Issued 2023 March 20, 06:31 UT
    
         The Minor Planet Electronic Circulars contain information on unusual
             minor planets, routine data on comets and natural satellites,
             and occasional editorial announcements.  They are published
        on behalf of Division F of the International Astronomical Union by the
              Minor Planet Center, Smithsonian Astrophysical Observatory,
                              Cambridge, MA 02138, U.S.A.
    			  
                 Prepared using the Tamkin Foundation Computer Network
    
                                  MPC@CFA.HARVARD.EDU
                URL https://www.minorplanetcenter.net/    ISSN 1523-6714
    
                                    2023 FH1                                 
    
    
    Observations:
         K23F01H  C2023 03 17.27221608 59 31.433+06 50 38.10         20.40GVEF058F51
         K23F01H  C2023 03 17.29633708 59 36.410+06 49 35.04         20.45GVEF058F51
         K23F01H  C2023 03 17.30847508 59 38.916+06 49 03.11         20.52GVEF058F51
         K23F01H* C2023 03 18.36289909 03 31.046+06 04 27.09         20.71wUEF058F51
         K23F01H  C2023 03 18.37357109 03 33.147+06 04 00.71         20.60wUEF058F51
         K23F01H  C2023 03 18.38420509 03 35.232+06 03 34.42         20.81wUEF058F51
         K23F01H  C2023 03 18.47435109 03 53.219+05 59 52.13         20.59GVEF058F52
         K23F01H  C2023 03 18.47506409 03 53.363+05 59 50.43         20.42GVEF058F52
         K23F01H 1C2023 03 18.79728 09 05 05.52 +05 46 31.0          20.6 VXEF058033
         K23F01H 1C2023 03 18.79849 09 05 05.75 +05 46 28.1          20.3 VXEF058033
         K23F01H 1C2023 03 18.79970 09 05 05.99 +05 46 25.2          20.7 VXEF058033
         K23F01H KC2023 03 18.82371309 05 10.72 +05 45 31.8          20.6 GVEF058L01
         K23F01H KC2023 03 18.82870609 05 11.72 +05 45 19.7          21.1 GVEF058L01
         K23F01H KC2023 03 18.83169 09 05 12.29 +05 45 11.8          21.1 RrEF058106
         K23F01H KC2023 03 18.83331409 05 12.64 +05 45 08.8          21.2 GVEF058L01
         K23F01H KC2023 03 18.84012 09 05 13.91 +05 44 52.1          20.7 RrEF058106
         K23F01H KC2023 03 18.84856 09 05 15.62 +05 44 32.1          20.4 RrEF058106
         K23F01H KC2023 03 18.85700 09 05 17.24 +05 44 11.9          20.1 RrEF058106
         K23F01H KC2023 03 19.15002 09 06 18.96 +05 32 44.5          20.8 VqEF058734
         K23F01H KC2023 03 19.15286 09 06 19.53 +05 32 37.8          20.8 VqEF058734
         K23F01H KC2023 03 19.15551 09 06 20.03 +05 32 31.5          21.2 VqEF058734
         K23F01H KC2023 03 20.06117909 09 26.37 +04 58 08.0          20.7 GVEF058H21
         K23F01H KC2023 03 20.06397409 09 26.89 +04 58 01.9          20.6 GVEF058H21
         K23F01H KC2023 03 20.06677009 09 27.42 +04 57 55.6          20.6 GVEF058H21
         K23F01H KC2023 03 20.06956509 09 27.95 +04 57 49.5          20.6 GVEF058H21
         K23F01H KC2023 03 20.07282709 09 28.56 +04 57 42.4          20.7 GVEF058H21
    
    Observer details:
    033 Karl Schwarzschild Observatory, Tautenburg.  Observers S. Melnikov, C.
        Hoegner, F. Ludwig, B. Stecklum.  Measurer B. Stecklum.  1.34-m f/3
        Schmidt + CCD.
    106 Crni Vrh.  Observer H. Mikuz.  0.6-m f/3.3 Deltagraph + CCD.
    734 Farpoint Observatory, Eskridge.  Observers D. Cromer, G. Hug, D. Goodin,
        R. Valentine.  Measurer D. Cromer.  0.70-m f/3.0 reflector + CCD.
    F51 Pan-STARRS 1, Haleakala.  Observers J. Bulger, K. Chambers, T. Lowe, A.
        Schultz, I. Smith.  Measurers S. Chastel, J. Fairlamb, M. Huber, Y.
        Ramanjooloo, R. Wainscoat, R. Weryk, K. Chambers, T. de Boer, H. Gao,
        C.-C. Lin, E. Magnier.  1.8-m Ritchey-Chretien + CCD.
    F52 Pan-STARRS 2, Haleakala.  Observers J. Bulger, K. Chambers, T. Dukes, T.
        Lowe, A. Schultz, I. Smith.  Measurers S. Chastel, J. Fairlamb, M. Huber,
        Y. Ramanjooloo, R. Wainscoat, R. Weryk.  1.8-m Ritchey-Chretien + CCD.
    H21 Astronomical Research Observatory, Westfield.  Observer R. Holmes.
        Measurers T. Linder, R. Holmes, L. Horn.  0.76-m f/3.0 astrograph + CCD.
    L01 Visnjan Observatory, Tican.  Observers K. Korlevic, E. Pettarin.  Measurer
        E. Pettarin.  1.0-m f/2.9 reflector + CCD.
    
    Orbital elements:
    2023 FH1                                                 Earth MOID = 0.0358 AU
    Epoch 2023 Feb. 25.0 TT = JDT 2460000.5                 Bell                    
    M  28.67489              (2000.0)            P               Q                  
    n   0.61906861     Peri.  118.06788     -0.12598903     -0.99106150             
    a   1.3634635      Node   339.03250     +0.86172245     -0.08742729             
    e   0.3200588      Incl.    7.04071     +0.49148874     -0.10076491             
    P   1.59           H   22.94          G   0.15           U   8                  
    Residuals in seconds of arc
    230317 F51  0.0   0.0     230318 033  0.0   0.1+    230319 734  0.1-  0.1-
    230317 F51  0.1-  0.1+    230318 033  0.1-  0.1+    230319 734  0.3+  0.1-
    230317 F51  0.1+  0.1-    230318 L01  0.2-  0.2+    230319 734  0.1+  0.2-
    230318 F51  0.0   0.1+    230318 L01  0.0   0.0     230320 H21  0.2-  0.0
    230318 F51  0.0   0.0     230318 106  0.0   0.3-    230320 H21  0.2-  0.1+
    230318 F51  0.0   0.1-    230318 L01  0.3+  0.1+    230320 H21  0.0   0.0
    230318 F52  0.0   0.1-    230318 106  0.5-  0.1+    230320 H21  0.1+  0.1+
    230318 F52  0.0   0.0     230318 106  0.2+  0.2+    230320 H21  0.2+  0.2+
    230318 033  0.1+  0.1+    230318 106  0.3-  0.1+
    
    Ephemeris:
    2023 FH1                 a,e,i = 1.36, 0.32, 7                   q = 0.9271
    Date    TT    R. A. (2000) Decl.     Delta      r    Elong.  Phase     V
    2023 02 18    04 10 13.3 +43 33 32   0.08335 1.0052    99.4    75.9    20.2
    ...
    2023 03 05    07 51 31.8 +20 17 32   0.1066  1.0661   132.2    43.6    19.9
    ...
    2023 03 13    08 41 25.5 +10 25 20   0.1418  1.1025   137.6    37.4    20.4
    ...
    2023 03 19    09 05 47.3 +05 39 07   0.1738  1.1310   138.3    35.9    20.9
    2023 03 20    09 09 12.8 +05 00 54   0.1795  1.1358   138.2    35.7    20.9
    2023 03 21    09 12 30.0 +04 24 53   0.1853  1.1407   138.1    35.6    21.0
    ...
    2023 03 27    09 29 57.2 +01 27 10   0.2221  1.1700   137.1    35.5    21.5
    ...
    2023 04 04    09 49 15.2 -01 18 01   0.2757  1.2096   134.7    36.0    22.0
    ...
    2023 04 19    10 19 44.3 -04 32 13   0.3893  1.2840   128.7    37.6    22.9
    
    M. P. C. Staff               (C) Copyright 2023 MPC           M.P.E.C. 2023-F58
    


    Read MPEC 2023-F57 Read MPEC 2023-F59


    MPEC number:

    Enter an MPEC number in one of the following forms:

    • 1997-B01 (the full form)
    • J97B01 (the packed version of the full form)
    • B01 (the abbreviated form)